Lid_Strength_Index
9 11 13 11 11 11 12 14 14 12 9 12 12 12 11 10 10 10 9 10 9 9 7 7 7 6 6 6 4 2 3 2 2 3 2 1 2 1 1 1 1 2 2 2
12 13 10 9 10 12 13 15 15 11 10 11 12 13 12 11 11 10 10 10 9 9 9 8 8 7 7 6 6 4 2 2 2 2 2 1 1 1 1 1 1 2 2 2
13 12 9 10 12 13 13 14 15 14 11 11 14 15 14 12 12 10 10 9 9 9 9 8 8 8 8 8 7 6 3 2 2 1 2 3 3 3 3 2 2 1 1 2
11 9 10 11 12 12 14 11 11 13 14 18 14 20 16 14 12 12 11 11 11 11 10 9 8 8 8 8 7 6 5 2 2 2 2 3 3 3 2 2 2 1 1 1
14 12 12 12 12 10 12 10 11 12 14 16 17 18 18 15 15 12 11 11 11 10 10 10 9 8 9 9 9 7 6 4 2 2 2 2 3 2 2 3 3 2 2 2
13 10 11 11 9 9 9 11 12 12 14 19 16 17 19 17 15 14 12 12 11 9 10 10 10 9 10 10 10 9 9 7 4 2 3 3 3 3 3 3 3 2 2 2
13 12 11 10 12 10 10 13 19 20 20 20 17 17 16 14 12 12 11 11 10 9 11 10 10 10 9 9 9 9 9 9 9 8 4 2 3 3 3 3 3 3 3 3
15 17 12 10 11 13 12 13 18 23 21 20 16 19 16 12 11 10 10 10 10 10 11 11 10 9 9 9 9 9 9 9 8 9 9 7 3 1 2 2 2 2 2 2
17 17 12 10 9 9 13 15 11 16 18 20 18 17 13 11 11 11 11 10 11 11 10 10 9 9 9 10 10 9 9 9 9 9 9 9 8 7 3 1 1 2 1 2
12 16 12 10 9 9 11 10 16 15 21 22 19 18 17 14 12 11 11 10 11 11 9 9 9 10 10 10 10 10 10 10 9 10 10 10 9 9 8 7 4 1 1 1
10 12 13 11 13 13 13 14 13 13 16 19 22 19 14 13 12 12 12 10 10 10 9 10 11 11 11 11 11 11 11 11 11 11 11 10 10 9 9 8 6 5 3 1
10 12 16 14 11 9 9 12 12 17 18 16 17 17 12 12 12 11 11 11 10 9 10 11 11 11 11 12 11 11 11 12 11 11 11 10 9 9 9 8 7 6 5 3
9 13 19 17 13 12 12 11 11 12 13 16 19 16 12 12 11 10 9 9 9 10 11 11 11 12 12 12 12 12 12 12 11 11 11 10 10 10 9 8 7 6 5 4
7 13 14 16 15 12 14 13 11 13 16 15 15 13 13 12 11 10 10 9 9 10 11 11 12 12 12 12 13 13 12 12 12 11 11 11 11 11 10 9 9 8 7 6
9 15 13 12 13 13 13 13 12 14 13 15 13 13 11 10 10 10 10 9 9 10 11 11 12 12 13 13 13 13 13 12 12 12 12 12 12 11 11 11 10 10 9 8
9 15 13 14 12 12 14 13 12 12 12 12 12 12 9 9 9 9 8 8 9 10 10 11 12 12 13 13 13 13 13 13 13 13 13 12 12 12 11 11 11 10 10 9
11 14 15 17 13 14 16 13 12 12 11 11 14 11 9 9 9 9 8 8 8 9 10 11 12 13 13 13 13 14 13 13 13 13 13 12 12 12 12 11 11 11 10 10
11 12 13 16 16 20 13 9 10 11 10 9 9 9 8 8 8 8 7 8 9 10 11 11 12 13 13 14 15 14 13 13 14 13 13 13 13 12 12 12 11 11 10 10
9 11 14 17 17 15 13 13 11 12 12 9 9 8 7 9 9 9 10 10 10 11 11 12 13 14 15 15 15 14 14 13 14 14 14 14 14 13 12 12 12 12 11 11
10 10 13 15 18 20 13 12 11 10 14 9 8 8 8 9 11 9 10 10 11 12 12 13 14 15 15 15 14 14 14 14 16 15 15 14 14 14 13 12 11 11 11 11
14 13 16 16 17 16 11 12 10 16 14 11 9 8 10 10 8 10 11 12 12 13 14 15 16 16 16 15 15 15 15 16 16 15 15 15 14 13 12 12 11 11 11 11
14 16 16 15 17 18 11 11 12 10 11 10 11 10 10 12 12 12 13 13 14 15 15 16 16 15 16 16 16 17 17 17 17 17 17 16 16 15 13 12 11 11 11 11
15 12 13 13 13 10 10 9 9 10 10 10 11 12 12 13 13 14 14 15 15 15 15 16 16 17 17 18 18 19 18 18 19 20 19 18 17 15 14 13 12 11 11 11
12 11 12 12 10 11 10 10 10 10 10 11 11 12 12 13 13 14 14 15 16 16 17 17 18 19 19 20 19 20 19 20 22 22 20 19 18 18 17 15 13 11 11 11
10 11 13 13 11 11 11 10 11 12 12 12 13 13 13 13 14 15 16 16 17 18 19 19 20 20 21 21 22 22 22 24 23 22 21 20 19 19 18 16 13 13 11 10
11 12 12 12 9 10 10 10 11 12 13 13 14 16 15 15 16 16 18 18 19 20 21 21 22 23 23 24 24 24 26 27 26 24 22 22 21 20 19 16 16 13 11 10